User: anonymous   Login
Location: Unspecified
(0.0000°N, 0.0000°E)
Time: 21:16:49
(UTC+00:00)
Language:

Okean 1-7 - Orbit

View from above orbital plane
View from above orbital plane
View from above satellite
View from above satellite

Ground track
Ground track

The orbit data is extracted from the following two-line orbital elements,

1 23317U 94066A   17141.96461729 +.00000283 +00000-0 +28451-4 0  9996
2 23317 082.5357 142.9743 0020673 147.9274 212.3206 14.87395834222059
Epoch (UTC): 21 May 2017 23:09:02
Eccentricity: 0.0020673
inclination: 82.5357°
perigee height: 591 km
apogee height: 620 km
right ascension of ascending node: 142.9743°
argument of perigee: 147.9274°
revolutions per day: 14.87395834
mean anomaly at epoch: 212.3206°
orbit number at epoch: 22205

The dashed part of the orbit path shows where the satellite is in the earth's shadow,  

DLR